Flag for U.S.A. Weather past 2 weeks in Lubbock, Texas, U.S.A.

Now
71 °F

Passing clouds.


Feels Like: 77 °F
Forecast: 68 / 91 °F
Wind: 8 mph from South

Location: Lubbock International Airport

Current Time: Sep 3, 2015 at 4:46:42 AM

Latest Report: Sep 3, 2015 at 3:53 AM


Visibility: 10 mi

Pressure: 29.84 "Hg (26.65 "Hg at 976m altitude)

Humidity: 53%

Dew point: 53 °F

Location of LubbockLocation

Historic Weather in Lubbock — Graph

°F

Lubbock temperature yesterday

Maximum temperature yesterday: 93 °F (at 4:53 PM)
Minimum temperature yesterday: 64 °F (at 4:53 AM)
Average temperature yesterday: 79 °F

Past Weeks' High & Low Weather Summary

 TemperatureHumidityPressure
High95 °F (Aug 22, 3:53 PM)97% (Aug 21, 7:53 AM)30.17 "Hg (Aug 21, 7:53 AM)
Low56 °F (Aug 24, 6:53 AM)19% (Aug 27, 4:53 PM)29.65 "Hg (Aug 19, 2:53 AM)
Average77 °F54%29.93 "Hg
* Reported Aug 19 2:53 AM — Sep 3 2:53 AM, Lubbock, Weather by CustomWeather, © 2015

Note: Actual official high and low records may vary slightly from our data, if they occured in-between our weather recording intervals... More about our weather records

Advertising

Lubbock weather history for previous 24 hours

 ConditionsComfort  
Time TempWeatherWind HumidityBarometerVisibility
2:53 AM
Thu, Sep 3
73 °FPassing clouds.10 mph50%29.84 "Hg10 mi
1:53 AM76 °FPartly cloudy.13 mph45%29.85 "Hg10 mi
12:53 AM77 °FPartly cloudy.13 mph44%29.86 "Hg10 mi
11:53 PM
Wed, Sep 2
77 °FPassing clouds.12 mph44%29.88 "Hg10 mi
10:53 PM79 °FPassing clouds.9 mph42%29.87 "Hg9 mi
9:53 PM77 °FPassing clouds.7 mph48%29.87 "Hg10 mi
8:53 PM83 °FPartly sunny.8 mph36%29.85 "Hg10 mi
7:53 PM87 °FSunny.13 mph32%29.84 "Hg10 mi
6:53 PM89 °FPartly sunny.12 mph29%29.84 "Hg10 mi
5:53 PM91 °FPartly sunny.13 mph28%29.84 "Hg10 mi
4:53 PM93 °FPartly sunny.16 mph27%29.85 "Hg10 mi
3:53 PM90 °FPartly sunny.17 mph29%29.88 "Hg10 mi
2:53 PM91 °FBroken clouds.16 mph28%29.89 "Hg10 mi
1:53 PM90 °FBroken clouds.16 mph31%29.91 "Hg10 mi
12:53 PM88 °FBroken clouds.14 mph35%29.93 "Hg10 mi
11:53 AM85 °FBroken clouds.17 mph39%29.96 "Hg10 mi
10:53 AM81 °FScattered clouds.13 mph44%29.97 "Hg10 mi
9:53 AM76 °FScattered clouds.9 mph50%29.97 "Hg10 mi
8:53 AM70 °FPassing clouds.10 mph59%29.98 "Hg10 mi
7:53 AM66 °FPassing clouds.7 mph68%29.96 "Hg10 mi
6:53 AM67 °FPassing clouds.7 mph63%29.93 "Hg10 mi
5:53 AM66 °FPassing clouds.5 mph68%29.93 "Hg10 mi
4:53 AM64 °FPassing clouds.No wind75%29.93 "Hg10 mi
Weather by CustomWeather, © 2015

See weather overviewHow to use our weather pages